Cloud_Cover
5 14 15 7 27 22 28 7 0 0 0 0 0 0 0 0 0 0 0 0 3 74
64 9 10 64 90 13 1 4 5 0 0 0 0 0 0 0 0 0 0 0 0 3
89 59 93 100 17 45 7 4 6 5 0 0 0 0 2 0 0 0 0 0 0 0
84 88 97 100 97 66 50 5 6 2 3 5 32 0 0 0 0 0 0 0 4 4
100 98 100 100 89 99 99 10 4 40 23 4 10 0 0 0 0 0 0 4 5 5
0 0 0 4 88 100 100 95 31 5 30 48 0 0 0 0 0 0 0 0 1 4
0 0 0 0 0 100 100 100 100 94 58 93 94 47 0 0 0 0 0 0 0 0
0 0 0 0 0 0 11 100 96 98 99 95 67 100 72 3 0 0 0 0 0 0
0 0 0 0 0 0 0 0 96 100 100 100 100 76 74 98 100 100 100 100 100 100
0 0 0 0 4 0 0 0 0 33 100 100 82 100 100 100 100 100 100 100 100 95
0 0 0 0 1 0 0 0 0 0 34 93 90 95 100 100 100 100 100 100 100 100
0 0 0 0 0 0 0 0 0 0 0 4 22 100 100 100 100 100 100 100 100 100
0 0 0 0 0 0 0 0 0 0 51 13 24 95 100 98 100 100 100 100 100 100
40 85 46 19 10 0 5 12 0 7 71 93 96 73 100 98 60 100 100 100 100 100